Location: Capannuccia
(43.7000°N, 11.3000°E)
Time: 10:08:43
(UTC+00:00)

STARLINK-2745 - Pass Details

Date: 30 July 2021
Orbit: 546 x 548 km, 53.1° (Epoch: 23 September)

Event Time Altitude Azimuth Distance (km) Brightness Sun altitude
Rises 20:16:19 0° 291° (WNW) 2,698 8.4 -14.9°
Reaches altitude 10° 20:19:16 10° 269° (W) 1,802 6.9 -15.3°
Maximum altitude 20:21:42 16° 232° (SW) 1,479 5.9 -15.6°
Enters shadow 20:24:00 11° 197° (SSW) 1,763 5.9 -15.9°
